Temperature
14 14 14 14 13 12 12 11 10 8 7 6 5 4 3 2 1 0 -0 -0 -1 -2 -2 -3 -3 -4 -5 -6 -7 -8 -9 -9 -10 -9 -8 -8 -8 -8 -8 -8 -8 -9 -9
14 13 13 13 12 12 12 11 10 8 7 5 4 3 2 1 0 -0 -1 -1 -2 -2 -3 -3 -4 -4 -5 -6 -7 -8 -9 -9 -9 -9 -9 -8 -8 -8 -8 -8 -8 -9 -9
13 13 13 13 12 12 11 10 9 7 6 5 3 2 1 0 -0 -0 -1 -2 -2 -2 -3 -3 -4 -5 -5 -6 -7 -8 -8 -9 -9 -9 -9 -8 -8 -8 -8 -8 -8 -9 -9
12 12 12 12 11 11 10 9 8 7 5 4 2 1 0 -0 -1 -1 -2 -2 -2 -2 -3 -3 -4 -5 -5 -6 -7 -8 -8 -9 -9 -9 -8 -8 -8 -8 -8 -8 -8 -9 -9
11 11 11 11 10 10 9 8 7 6 4 2 1 0 -0 -1 -1 -1 -2 -3 -3 -3 -3 -4 -4 -4 -5 -6 -7 -7 -8 -8 -8 -8 -8 -8 -8 -8 -8 -8 -9 -9 -9
10 10 10 10 9 9 9 8 7 5 4 2 1 -0 -1 -1 -1 -2 -3 -3 -3 -3 -3 -4 -4 -5 -5 -6 -7 -7 -8 -8 -8 -8 -8 -8 -8 -8 -9 -9 -9 -10 -10
9 9 9 9 8 8 8 7 6 5 3 2 1 -1 -1 -1 -2 -3 -4 -4 -4 -4 -4 -4 -5 -5 -6 -6 -7 -7 -8 -8 -8 -8 -8 -8 -9 -9 -9 -10 -10 -10 -10
8 8 8 8 7 7 7 6 5 3 2 1 -0 -1 -2 -2 -3 -4 -4 -4 -4 -4 -4 -5 -5 -5 -6 -6 -7 -7 -8 -8 -8 -8 -9 -9 -9 -9 -10 -10 -10 -11 -11
7 7 7 6 6 6 5 5 4 2 1 -0 -1 -2 -3 -3 -3 -4 -4 -4 -5 -5 -5 -5 -5 -5 -6 -7 -8 -8 -8 -8 -8 -8 -9 -9 -9 -9 -10 -10 -11 -11 -11
5 5 5 5 5 5 4 4 3 1 -0 -2 -3 -3 -4 -4 -4 -4 -4 -5 -5 -5 -5 -5 -5 -5 -6 -7 -8 -8 -8 -8 -8 -8 -9 -9 -9 -9 -10 -11 -11 -12 -12
4 4 4 4 4 4 3 3 2 1 -1 -2 -4 -4 -5 -5 -4 -4 -4 -5 -5 -5 -5 -5 -5 -5 -6 -7 -8 -8 -8 -8 -8 -9 -9 -9 -9 -10 -10 -11 -11 -12 -12
3 3 3 3 3 3 2 2 1 -1 -2 -3 -5 -5 -6 -5 -5 -5 -5 -5 -5 -5 -5 -5 -5 -6 -7 -7 -8 -8 -8 -8 -9 -9 -9 -10 -10 -10 -10 -11 -11 -11 -12
2 2 2 2 2 1 1 1 -0 -2 -3 -4 -5 -6 -6 -6 -5 -5 -5 -5 -5 -5 -5 -5 -6 -7 -7 -7 -8 -8 -8 -9 -9 -9 -10 -10 -10 -10 -11 -11 -11 -11 -11
1 1 1 1 1 1 0 -0 -1 -2 -3 -4 -5 -6 -6 -6 -6 -5 -5 -5 -5 -5 -6 -6 -7 -7 -8 -8 -8 -8 -8 -9 -9 -10 -10 -10 -10 -11 -11 -11 -11 -11 -12
-0 -0 -0 -0 -0 -0 -0 -1 -1 -2 -3 -4 -5 -6 -7 -6 -5 -5 -5 -5 -5 -5 -6 -6 -7 -7 -8 -8 -8 -8 -9 -9 -9 -10 -10 -10 -11 -11 -11 -11 -12 -12 -12
-1 -1 -1 -1 -1 -1 -1 -1 -1 -2 -3 -4 -6 -7 -7 -6 -6 -6 -5 -5 -5 -5 -6 -7 -7 -7 -8 -8 -8 -8 -9 -9 -10 -10 -10 -11 -11 -11 -11 -11 -12 -12 -12
-1 -2 -2 -2 -2 -2 -2 -3 -3 -3 -4 -5 -6 -6 -7 -7 -7 -6 -6 -5 -6 -6 -7 -7 -7 -7 -8 -8 -8 -8 -9 -9 -10 -10 -10 -11 -11 -11 -12 -12 -12 -12 -12
-2 -2 -2 -2 -2 -2 -3 -3 -4 -4 -5 -6 -6 -6 -7 -7 -7 -6 -6 -6 -6 -7 -7 -7 -7 -7 -8 -8 -8 -9 -9 -9 -10 -10 -10 -11 -11 -11 -12 -12 -12 -12 -12
-2 -2 -2 -3 -3 -3 -3 -3 -4 -5 -5 -6 -7 -7 -7 -7 -7 -6 -6 -6 -6 -6 -6 -7 -7 -7 -8 -8 -8 -9 -9 -9 -10 -10 -10 -11 -11 -11 -12 -12 -12 -12 -12
-2 -3 -3 -3 -3 -3 -3 -4 -4 -5 -6 -7 -7 -7 -7 -7 -7 -7 -6 -6 -6 -6 -6 -7 -7 -7 -7 -8 -8 -9 -9 -9 -10 -10 -11 -11 -11 -11 -12 -12 -12 -12 -12
-3 -3 -3 -3 -3 -4 -4 -4 -5 -5 -6 -7 -7 -7 -7 -7 -7 -6 -6 -6 -6 -6 -6 -7 -7 -7 -8 -8 -8 -9 -9 -10 -10 -10 -11 -11 -11 -11 -11 -12 -12 -12 -12
-3 -3 -3 -4 -4 -4 -5 -5 -5 -6 -6 -7 -7 -8 -8 -7 -7 -6 -6 -6 -6 -6 -6 -7 -7 -7 -8 -8 -9 -9 -9 -10 -10 -10 -11 -11 -11 -11 -11 -12 -12 -12 -12
-3 -4 -4 -4 -4 -5 -5 -5 -6 -6 -6 -7 -7 -8 -8 -8 -7 -7 -6 -6 -6 -6 -7 -7 -7 -8 -8 -8 -9 -9 -10 -10 -10 -10 -11 -11 -11 -11 -11 -12 -12 -12 -12
-4 -4 -4 -4 -4 -5 -5 -5 -6 -6 -7 -7 -7 -8 -8 -8 -7 -7 -6 -6 -6 -7 -7 -7 -7 -8 -8 -9 -9 -9 -10 -10 -10 -10 -11 -11 -11 -11 -11 -11 -12 -12 -12
-4 -4 -4 -4 -5 -5 -5 -6 -6 -6 -7 -7 -7 -8 -8 -7 -7 -7 -6 -6 -6 -7 -7 -7 -8 -8 -8 -9 -9 -9 -10 -10 -10 -10 -11 -11 -11 -11 -11 -11 -12 -12 -12
-4 -4 -4 -5 -5 -5 -6 -6 -6 -7 -7 -7 -7 -8 -7 -7 -7 -7 -7 -7 -7 -7 -7 -7 -8 -8 -9 -9 -9 -10 -10 -10 -10 -10 -11 -11 -11 -11 -11 -11 -12 -12 -12
Wind_Speed
13 15 17 18 18 19 20 21 21 20 20 21 21 21 22 22 21 20 19 18 18 17 16 16 17 16 13 12 13 13 14 14 18 20 18 19 22 22 21 23 24 25 25
10 13 15 16 17 18 20 20 20 20 20 20 20 21 21 21 21 21 20 19 18 18 18 17 18 14 16 15 13 15 15 16 17 21 20 19 22 22 22 22 20 21 23
9 11 13 15 16 18 19 18 19 19 20 20 21 21 21 21 21 21 20 20 19 19 18 17 18 17 17 15 16 15 14 15 16 18 20 19 19 19 21 21 21 19 21
9 11 13 14 15 16 17 17 18 18 20 20 21 21 20 20 19 19 19 18 18 18 18 18 17 17 18 17 15 17 16 17 17 17 18 18 18 19 18 17 18 18 18
10 11 13 13 13 14 15 15 16 18 19 19 20 20 20 18 17 19 18 18 18 18 17 18 18 20 22 18 15 16 16 15 15 16 17 18 18 17 16 16 18 19 19
11 12 12 12 12 13 14 15 16 17 18 19 20 21 21 18 25 29 22 18 18 18 17 17 18 20 23 25 27 25 22 18 17 17 17 18 20 19 17 17 18 19 20
12 12 12 12 13 13 14 15 16 17 18 19 19 21 22 23 29 30 31 20 18 17 17 16 14 15 19 16 20 24 23 26 25 20 20 21 21 20 20 21 20 20 21
12 12 12 11 13 13 14 15 16 15 16 17 18 20 21 22 29 30 30 23 19 18 17 17 16 16 15 15 14 16 17 18 19 16 16 18 19 19 18 19 20 20 20
12 13 12 12 13 13 14 15 15 14 16 16 17 19 21 22 28 30 28 17 17 19 17 16 17 16 19 21 16 17 18 16 18 22 24 23 26 26 21 15 16 16 18
14 15 14 13 14 14 14 14 13 14 15 15 16 18 20 20 24 29 29 15 16 15 15 15 20 20 20 20 16 16 17 15 13 15 17 18 18 18 21 15 14 15 16
16 16 16 15 14 14 14 13 12 12 13 15 16 16 18 20 22 27 29 17 15 14 12 12 13 19 21 21 19 15 17 16 14 13 13 13 13 11 12 11 12 13 15
17 17 17 15 13 11 13 12 12 12 13 14 14 15 14 16 20 23 28 27 21 15 13 11 12 17 18 19 16 16 19 17 11 11 12 12 12 12 11 12 13 14 15
17 17 17 16 13 12 12 12 11 11 11 11 12 13 12 12 15 24 26 27 27 17 12 15 15 16 16 14 15 17 15 11 10 11 12 12 12 12 12 12 13 13 15
17 17 16 15 14 12 10 10 10 10 11 11 12 12 12 12 12 13 14 16 21 18 14 15 17 16 13 12 12 11 9 9 9 10 11 12 11 11 11 11 12 12 12
17 16 15 13 13 12 11 10 11 12 12 12 12 12 12 12 15 19 15 13 13 12 11 8 9 9 9 9 8 8 8 8 9 9 10 11 11 11 11 11 11 11 12
15 15 13 12 11 11 11 11 14 16 19 21 21 17 14 17 17 20 22 21 20 18 13 9 9 9 9 9 8 8 8 8 8 8 9 10 10 11 11 11 11 11 12
16 15 13 12 12 11 10 11 11 11 16 20 22 23 22 19 18 18 21 22 20 19 12 10 10 9 9 8 8 8 8 8 7 8 9 10 10 10 11 11 11 11 11
16 15 14 12 12 11 11 10 10 10 10 9 13 19 22 22 20 19 19 17 14 14 11 10 9 9 8 8 8 8 8 7 7 8 9 9 9 10 11 11 11 12 12
15 13 12 12 12 11 11 10 10 10 10 9 8 10 15 18 19 20 18 12 11 11 10 9 9 8 7 7 7 7 7 8 8 8 9 9 9 10 10 11 11 15 13
13 17 16 13 12 11 10 9 9 9 9 9 8 8 7 10 10 12 13 11 10 10 9 9 8 7 7 7 7 7 7 7 8 8 8 9 9 9 11 12 11 12 11
13 14 17 14 11 10 10 9 9 9 8 8 8 8 10 9 9 11 11 11 10 10 9 8 7 7 7 6 6 7 8 8 8 8 8 9 9 9 10 10 11 11 11
13 12 11 11 11 10 10 8 8 8 8 9 7 7 12 9 8 8 9 9 9 8 7 7 6 6 6 6 6 7 7 8 8 8 8 9 9 9 10 10 11 11 11
13 13 12 11 10 12 11 8 7 7 7 7 7 6 7 7 7 8 8 8 7 6 6 6 6 6 6 6 6 6 7 8 8 8 9 9 9 9 9 10 12 13 12
13 13 12 11 10 9 8 8 7 7 7 6 6 6 7 7 7 7 7 6 6 6 6 6 6 7 7 6 6 6 7 8 9 8 10 10 10 9 10 10 11 13 12
12 12 11 11 10 9 8 7 6 6 6 6 6 6 6 6 6 6 6 6 7 6 6 6 5 6 7 8 7 7 10 13 12 9 7 7 9 10 10 11 11 12 12
12 11 10 9 9 8 7 6 6 5 5 5 6 6 6 6 6 6 6 6 6 6 5 5 6 6 6 7 8 10 11 12 13 11 7 6 8 9 10 10 12 11 12
Wind_Direction
236 233 233 234 233 233 233 234 233 230 226 222 218 215 212 209 206 207 210 210 214 219 221 227 233 237 242 244 247 249 251 254 266 277 282 286 287 286 285 283 281 282 281
248 242 240 239 237 235 236 235 233 231 227 224 220 218 215 210 207 207 210 211 213 218 222 226 234 235 239 244 247 249 252 256 262 275 282 285 285 286 286 285 284 282 280
262 252 248 244 241 240 240 238 234 232 228 224 221 219 216 211 207 208 209 211 214 218 221 225 232 234 240 243 245 250 255 259 261 269 277 282 284 285 287 286 285 283 283
274 262 258 254 250 247 244 239 235 231 229 225 223 221 217 213 209 207 208 212 215 219 222 226 231 232 238 243 247 251 255 260 263 267 274 280 284 288 288 289 290 289 287
284 272 268 267 262 255 249 244 238 234 231 227 225 222 217 213 209 205 206 210 215 220 224 228 231 234 237 240 244 250 254 259 266 271 276 282 287 291 292 293 293 293 289
291 283 281 276 268 259 252 245 239 235 231 227 225 223 220 215 214 209 205 211 216 220 225 229 234 239 242 247 252 255 257 263 269 273 279 283 288 291 295 295 293 292 292
294 288 285 280 272 265 257 248 242 237 232 228 226 223 223 219 216 214 211 210 216 220 223 228 233 236 240 245 255 262 267 269 268 272 277 282 287 291 294 292 289 288 288
296 291 286 281 277 272 262 253 247 241 235 231 228 226 226 223 219 217 216 215 221 224 225 228 234 239 238 242 249 257 261 264 266 267 270 276 279 284 285 285 289 288 286
294 296 295 286 281 276 267 259 251 244 239 234 230 228 227 226 221 219 217 218 222 226 228 229 234 240 243 246 251 258 265 267 268 270 271 274 278 285 287 289 289 288 289
308 305 302 295 285 278 273 266 256 246 242 237 235 230 228 227 222 219 217 217 221 225 227 229 234 239 244 248 250 259 267 273 276 280 278 279 281 283 284 280 281 283 285
310 306 302 296 289 282 278 268 258 248 243 238 237 233 230 229 225 220 217 212 217 221 225 227 230 236 244 250 254 259 267 276 282 280 280 282 282 280 278 275 272 273 276
308 304 301 298 293 284 277 270 258 248 243 240 238 236 231 228 226 223 219 217 215 218 224 228 231 235 244 252 258 263 271 279 280 280 282 284 287 289 289 286 280 274 268
306 303 302 301 295 286 277 270 260 247 242 240 236 235 232 225 223 222 221 221 220 218 224 229 233 239 247 255 260 267 273 275 275 278 281 284 289 291 292 290 286 280 275
304 303 303 302 298 291 277 266 257 248 242 238 236 235 232 225 219 215 215 221 224 225 229 231 234 242 246 252 260 265 263 265 270 275 280 286 290 292 292 294 295 296 292
305 303 303 299 295 292 279 265 258 249 243 238 238 236 233 229 221 210 204 208 208 212 210 216 223 231 238 243 250 256 260 263 268 272 279 286 290 292 294 297 295 295 292
305 304 303 301 297 291 287 280 259 252 253 247 243 241 240 239 235 220 214 212 208 205 205 216 223 229 237 245 252 258 260 264 270 276 280 284 289 293 297 298 297 295 294
301 301 300 297 294 291 286 282 283 270 253 250 246 244 240 237 235 226 217 211 209 204 209 218 224 230 237 243 250 256 262 267 274 275 278 283 288 293 296 298 300 298 296
301 298 296 294 292 289 284 279 274 274 274 261 249 245 241 236 230 223 214 205 206 207 212 219 225 230 236 241 246 252 261 268 270 273 277 282 286 291 295 298 299 299 299
300 298 297 295 291 286 282 277 270 266 264 264 258 248 239 233 225 217 207 202 201 204 210 218 224 229 233 238 244 250 258 265 271 275 278 282 286 290 293 296 298 299 299
299 296 298 296 293 288 282 274 268 263 259 255 250 244 232 219 210 204 201 199 201 206 210 215 220 225 229 234 240 248 256 264 270 272 278 283 286 288 292 295 298 299 298
300 299 299 298 294 289 283 275 268 261 254 250 245 237 226 217 205 197 193 196 201 206 209 212 216 220 225 230 238 246 255 264 270 274 279 285 289 291 293 295 297 297 298
299 298 297 295 292 288 282 274 267 258 250 246 242 234 228 221 208 198 196 200 203 205 205 206 213 218 222 228 236 247 256 264 271 276 281 286 289 290 293 296 299 301 301
299 297 296 294 291 289 284 272 262 253 245 238 231 221 220 215 205 198 197 197 193 192 193 200 210 217 223 229 237 245 256 265 273 278 283 288 290 292 294 297 299 302 303
299 297 296 296 293 288 281 272 260 247 238 230 220 214 214 210 200 196 193 187 185 187 191 199 211 221 227 237 245 250 256 266 275 276 277 281 288 292 295 296 298 301 302
299 298 297 297 295 290 282 272 255 239 228 219 213 207 206 204 195 188 185 183 183 189 194 200 211 222 230 240 252 261 269 276 281 286 281 280 286 289 293 295 298 302 303
300 298 297 296 293 288 281 270 250 232 222 213 206 201 199 196 190 183 181 182 184 188 194 205 215 224 237 247 256 266 275 281 289 290 290 287 289 294 300 299 302 303 304
Height
1440 1438 1436 1434 1432 1429 1427 1425 1424 1423 1421 1420 1421 1422 1423 1425 1427 1430 1432 1434 1436 1438 1439 1440 1440 1439 1438 1437 1436 1434 1431 1429 1422 1414 1413 1410 1406 1402 1397 1393 1387 1382 1376
1435 1432 1429 1427 1424 1421 1418 1416 1414 1412 1411 1410 1410 1410 1412 1414 1416 1418 1421 1424 1426 1428 1429 1430 1430 1430 1429 1428 1426 1424 1422 1420 1416 1408 1403 1401 1397 1393 1388 1383 1378 1372 1366
1430 1427 1424 1420 1417 1413 1410 1407 1405 1403 1401 1399 1399 1398 1400 1402 1405 1408 1411 1413 1415 1417 1419 1420 1420 1420 1419 1418 1417 1415 1414 1411 1408 1402 1395 1392 1388 1384 1379 1373 1368 1362 1357
1425 1421 1417 1413 1409 1405 1402 1398 1395 1393 1390 1389 1388 1388 1390 1392 1394 1397 1400 1402 1405 1407 1409 1410 1410 1410 1410 1409 1408 1406 1405 1403 1400 1395 1389 1384 1380 1376 1371 1365 1358 1353 1347
1419 1414 1410 1406 1402 1397 1393 1389 1386 1383 1380 1379 1378 1377 1378 1380 1382 1386 1389 1392 1395 1397 1399 1400 1400 1401 1400 1400 1399 1397 1396 1394 1391 1387 1382 1377 1372 1368 1363 1358 1351 1344 1337
1412 1407 1403 1398 1393 1389 1384 1380 1376 1372 1370 1368 1367 1367 1367 1368 1372 1376 1379 1382 1385 1387 1389 1390 1391 1391 1391 1390 1390 1390 1389 1386 1383 1380 1375 1370 1364 1361 1356 1350 1344 1336 1327
1404 1400 1395 1390 1385 1380 1375 1370 1366 1363 1360 1357 1356 1356 1356 1358 1362 1366 1369 1372 1375 1377 1379 1381 1381 1381 1382 1381 1380 1380 1379 1377 1375 1372 1367 1362 1357 1353 1348 1341 1336 1329 1321
1397 1392 1387 1381 1376 1371 1366 1361 1357 1353 1350 1348 1346 1346 1347 1348 1353 1357 1361 1364 1366 1368 1370 1371 1372 1372 1373 1372 1371 1369 1367 1366 1365 1362 1358 1353 1349 1344 1340 1334 1327 1320 1312
1389 1384 1378 1373 1367 1362 1357 1352 1348 1344 1341 1338 1337 1336 1337 1339 1343 1348 1352 1355 1357 1359 1361 1362 1363 1364 1364 1364 1363 1361 1359 1357 1355 1353 1349 1345 1341 1337 1332 1326 1320 1313 1305
1381 1375 1370 1365 1359 1353 1348 1344 1339 1335 1332 1330 1328 1327 1328 1330 1334 1338 1343 1346 1348 1350 1352 1353 1354 1355 1355 1356 1355 1354 1351 1349 1347 1343 1340 1336 1332 1327 1323 1319 1313 1307 1299
1373 1367 1362 1357 1351 1346 1340 1335 1331 1327 1324 1321 1320 1319 1319 1321 1325 1329 1333 1336 1339 1341 1343 1345 1346 1347 1347 1348 1348 1346 1344 1342 1339 1335 1331 1327 1323 1319 1314 1310 1305 1300 1293
1365 1359 1354 1349 1343 1338 1332 1327 1323 1319 1316 1313 1312 1311 1311 1313 1316 1319 1323 1327 1331 1333 1335 1337 1338 1339 1339 1340 1340 1338 1337 1335 1332 1328 1324 1320 1316 1311 1307 1302 1296 1291 1286
1357 1351 1346 1341 1335 1330 1325 1320 1315 1311 1308 1306 1304 1303 1303 1304 1307 1311 1315 1319 1323 1325 1327 1330 1331 1332 1332 1332 1332 1331 1329 1327 1324 1321 1317 1313 1309 1304 1299 1293 1288 1283 1277
1349 1344 1338 1333 1327 1322 1317 1313 1308 1304 1301 1298 1297 1296 1296 1297 1299 1303 1307 1311 1316 1319 1321 1323 1325 1325 1325 1325 1324 1323 1322 1320 1317 1314 1310 1306 1302 1297 1292 1288 1282 1276 1270
1342 1336 1331 1325 1320 1314 1310 1305 1301 1297 1294 1292 1290 1290 1290 1290 1292 1296 1300 1304 1308 1312 1315 1316 1317 1318 1318 1318 1317 1316 1314 1313 1310 1307 1304 1300 1296 1291 1286 1282 1277 1271 1266
1334 1329 1323 1318 1313 1307 1302 1297 1293 1290 1286 1284 1283 1283 1283 1285 1288 1291 1294 1298 1302 1306 1308 1309 1310 1311 1311 1311 1310 1309 1308 1306 1303 1301 1297 1294 1290 1285 1281 1276 1272 1266 1261
1328 1322 1316 1311 1306 1300 1295 1290 1285 1282 1279 1277 1276 1276 1277 1279 1282 1286 1289 1293 1297 1300 1302 1303 1304 1304 1305 1304 1304 1302 1301 1299 1297 1294 1291 1288 1284 1280 1276 1271 1266 1261 1256
1321 1316 1310 1304 1299 1294 1289 1284 1279 1275 1272 1270 1269 1269 1270 1273 1277 1280 1284 1288 1291 1293 1295 1297 1298 1298 1298 1298 1297 1296 1295 1293 1291 1288 1285 1282 1279 1275 1270 1266 1261 1256 1251
1314 1308 1303 1298 1292 1287 1282 1277 1273 1270 1267 1264 1263 1263 1264 1267 1271 1275 1279 1282 1284 1287 1289 1291 1292 1292 1292 1292 1291 1290 1289 1287 1285 1283 1280 1277 1274 1270 1265 1261 1256 1251 1247
1306 1301 1296 1291 1285 1280 1275 1271 1267 1264 1261 1259 1258 1259 1260 1262 1265 1269 1273 1276 1279 1282 1284 1285 1286 1287 1286 1286 1285 1284 1283 1281 1279 1277 1275 1272 1268 1265 1260 1256 1251 1246 1241
1299 1294 1289 1284 1279 1274 1269 1265 1261 1258 1256 1255 1254 1254 1256 1258 1261 1264 1268 1271 1274 1277 1279 1280 1281 1281 1281 1280 1279 1279 1277 1276 1274 1272 1270 1267 1263 1260 1255 1251 1246 1242 1237
1292 1287 1282 1277 1272 1267 1263 1259 1256 1253 1251 1250 1250 1250 1252 1255 1258 1261 1264 1267 1270 1273 1274 1276 1276 1276 1275 1275 1274 1273 1272 1271 1269 1267 1265 1262 1258 1255 1251 1246 1242 1237 1232
1286 1280 1275 1270 1265 1261 1257 1253 1250 1248 1247 1246 1246 1247 1249 1251 1254 1257 1261 1264 1266 1268 1270 1271 1271 1271 1270 1270 1269 1268 1267 1266 1265 1263 1260 1257 1254 1250 1246 1242 1237 1233 1228
1279 1274 1269 1264 1259 1255 1251 1248 1246 1244 1243 1242 1243 1244 1246 1248 1251 1254 1257 1260 1263 1264 1266 1267 1267 1266 1266 1265 1264 1264 1263 1262 1260 1258 1256 1253 1249 1245 1242 1237 1233 1228 1224
1273 1268 1263 1258 1254 1250 1246 1243 1241 1240 1239 1239 1240 1241 1243 1245 1248 1251 1254 1257 1259 1261 1262 1263 1262 1262 1261 1261 1260 1260 1259 1258 1256 1254 1252 1248 1245 1241 1237 1233 1229 1224 1220
1267 1262 1257 1253 1248 1245 1242 1239 1237 1237 1236 1237 1237 1239 1241 1243 1246 1249 1252 1254 1256 1257 1258 1259 1258 1258 1257 1257 1256 1256 1255 1254 1252 1250 1248 1244 1240 1237 1233 1229 1224 1220 1216